PROXIMA II (43696 NORAD) Tracking and Keplerian Element Data

This shows tracking and keplerian element data for the satellite.

Feedback or suggestion? Click here.




ElementValue
Catalog43696
NamePROXIMA II
Epoch Orbit2974
Epoch Day145.82771006
Epoch Year2019
RAAN333.7262
Inclination85.0306
Eccentricity0.001723
Argument of Perigee272.6104
Mean Anonmoly87.3165
Mean Motion15.21348343
Decay Rate6.17E-06
L11 43696U 18088G 19145.82771006 .00000617 00000-0 25643-4 0 9992
L22 43696 85.0306 333.7262 0017230 272.6104 87.3165 15.21348343 29749

Live tracking and technical data element details for PROXIMA II (NORAD 43696). PROXIMA II can be tracked NOW for your location showing map with azimuth and elevation plus other details from your city location.

Track the satellite on the map from your city or location and see movement details for azimuth, elevation, latitude, longitude, range, height, and movement on the map or in text.







IsCatalogInMostPopularTable: catalog: 43696, numindb: 103
Update: records affected: 1



GetName: 43696 PROXIMA II

Hit Count: updated at: Sun, 26 May 2019 19:39:56 GMT